Location: Arbon
(43.0005°N, 0.7472°E)
Time: 07:10:47
(UTC+00:00)

Vanguard 1 - Pass Details

Date: 30 November 2020
Orbit: 648 x 3834 km, 34.3° (Epoch: 21 January)

Event Time Altitude Azimuth Distance (km) Brightness Sun altitude
Rises 04:18:14 0° 225° (SW) 3,170 - -30.4°
Reaches altitude 10° 04:20:32 10° 214° (SSW) 2,425 - -29.9°
Exits shadow 04:23:11 24° 187° (S) 1,856 11.4 -29.5°
Maximum altitude 04:25:24 30° 153° (SSE) 1,822 11.6 -29.1°
Drops below altitude 10° 04:32:51 10° 97° (E) 3,794 14.0 -27.7°
Sets 04:37:28 0° 88° (E) 5,345 15.1 -26.9°
